Terug naar catalogus

BREEZE-M DEB

TANK

ActiefHEO
NORAD 38344·DEBRIS·🇷🇺 Russia

Gelanceerd May 17, 2012 vanaf Baikonur Cosmodrome

Loading…

Volgende Passages (komende 24 uur)

TLE

VersSource: Space-Track

Epoch: Sep 13, 2026, 23:35 UTC

1 38344U 12026C   26256.98302411  .00004607  00000-0  10199-2 0  9991
2 38344  49.3144 261.2507 6163526 298.7485  13.3160  3.79772047184973

Volg BREEZE-M DEB in realtime met AllMySat

Download on the App Store